{"data":{"norad_id":59207,"intl_designator":"2024-046G","name":"STARLINK-31591","alt_names":[],"object_type":"PAYLOAD","status":"ACTIVE","operator":null,"country":"US","launch_date":"2024-03-11","launch_site_code":"AFWTR","launch_vehicle":null,"mission":null,"orbit_class":"UNKNOWN","rcs_meters":null,"size_class":null,"mass_kg":null,"dimensions":null,"purposes":["comms"],"wikipedia_slug":null,"has_3d_model":false,"image_url":null,"decayed_at":null,"tle_current":{"epoch":"2026-05-25T01:06:22.913856Z","epoch_age_seconds":68385,"freshness":"FRESH","line1":"1 59207U 24046G   26145.04609854  .00000371  00000+0  22111-4 0  9994","line2":"2 59207  53.1592 159.7144 0000956  85.1157 274.9954 15.34402711124755","mean_motion":15.34402711,"eccentricity":9.56e-5,"inclination_deg":53.1592,"raan_deg":159.7144,"arg_perigee_deg":85.1157,"mean_anomaly_deg":274.9954,"bstar":2.2111e-5,"rev_number":12475,"period_min":93.847592270058,"perigee_km":462.041198999,"apogee_km":463.3491661123,"semimajor_km":6840.8321825557,"source":"CELESTRAK","updated_at":"2026-05-25T13:38:18.865196Z"}}}